Weather in Syurbey-Tokayevo

Russia / Chuvash Republic     55°15′48″N   47°24′25″E
temp.,
°C
wind,
m/s
gust,
m/s
humid.,
%
clouds,
%
prec.,
mm/h
press.,
hPa
HPBL,
m
13 june, sun
sun1300:00+15se349584 0.1 101179
03:00+14se349534 0.1 101165
06:00+17sse3689100 0.0 1011196
09:00+22s46711 0.0 1011673
12:00+23s696098 1.5 10111306
15:00+23ssw6107149 2.2 10111335
18:00+21ssw597822 1.0 1011383
21:00+17s4892100 2.4 1012140
14 june, mon
mon1400:00+16ssw389538 0.0 1012174
03:00+15ssw389564 0.0 1013169
06:00+18ssw369098 0.0 1015223
09:00+22ssw457335 0.0 1015797
12:00+24ssw4565100 1.0 10151256
15:00+24ssw4562100 1.1 10151339
18:00+22sw348196 2.1 1015198
21:00+18ssw1188100 2.3 101611
15 june, tue
tue1500:00+17wnw118994 0.0 101511
03:00+16ne1191100 0.0 101511
06:00+19ene128575 0.0 1015125
09:00+22se458039 0.9 1015595
12:00+19se248894 0.4 1014192
15:00+21sse238297 0.8 1014305
18:00+22ese348110 0.1 1013390
21:00+19ese2292100 1.6 101231
16 june, wed
wed1600:00+17se359374 0.4 101292
03:00+16sse369477 0.4 101196
06:00+19se368935 0.1 1011180
09:00+23se4768100 0.1 1010420
12:00+26ese4660100 0.0 1008843
15:00+26sse455789 0.0 10081248
18:00+25se236940 0.0 1007109
21:00+20ssw11805 0.0 100811
17 june, thu
thu1700:00+17nnw5109458 0.1 1009224
03:00+16nnw6129795 0.7 1010367
06:00+16n71191100 0.1 1012577
09:00+18n8117940 0.1 1014812
12:00+21n896229 0.0 10161419
15:00+21nne79580 0.0 10171690
18:00+19nne510660 0.0 1019597
21:00+15n35690 0.0 102164